Location: Caltech
(34.1382°N, 118.1253°W)
Time: 04:25:46
(UTC-07:00)

AO-27 - Visible Passes

Search period start: 25 August 2016 00:00
Search period end: 04 September 2016 00:00
Orbit: 785 x 798 km, 98.8° (Epoch: 24 August)

Date Brightness Start Highest point End Pass type
(mag) Time Alt. Az. Time Alt. Az. Time Alt. Az.
25 Aug 7.6 03:50:18 10° NNE 03:55:19 79° ENE 03:55:19 79° ENE visible
25 Aug 9.6 05:33:17 10° NW 05:34:14 10° WNW 05:35:12 10° WNW visible
26 Aug 8.8 03:21:35 10° NNE 03:25:52 39° E 03:25:52 39° E visible
26 Aug 9.0 05:01:51 10° NNW 05:05:37 21° WNW 05:06:37 19° W visible
27 Aug 9.8 02:53:28 10° NE 02:56:25 20° E 02:56:25 20° E visible
27 Aug 8.2 04:32:04 10° N 04:36:51 39° WNW 04:37:11 38° W visible
28 Aug 7.6 04:02:46 10° N 04:07:44 75° NW 04:07:44 75° NW visible
29 Aug 8.4 03:33:52 10° NNE 03:38:16 50° ENE 03:38:16 50° ENE visible
29 Aug 9.3 05:14:56 10° NNW 05:17:57 16° WNW 05:19:02 15° W visible
30 Aug 9.5 03:05:28 10° NE 03:08:50 25° ENE 03:08:50 25° ENE visible
30 Aug 8.5 04:44:47 10° N 04:49:14 30° WNW 04:49:35 29° WNW visible
31 Aug 10.3 02:38:04 10° ENE 02:39:23 13° ENE 02:39:23 13° ENE visible
31 Aug 7.8 04:15:19 10° N 04:20:08 57° WNW 04:20:08 57° WNW visible
01 Sep 8.0 03:46:15 10° NNE 03:50:40 61° NE 03:50:40 61° NE visible
01 Sep 9.5 05:28:26 10° NW 05:30:15 12° WNW 05:31:26 11° WNW visible
02 Sep 9.2 03:17:36 10° NNE 03:21:13 32° ENE 03:21:13 32° ENE visible
02 Sep 8.9 04:57:37 10° NNW 05:01:36 23° WNW 05:01:59 23° WNW visible
03 Sep 10.1 02:49:39 10° NE 02:51:46 17° ENE 02:51:46 17° ENE visible
03 Sep 8.1 04:27:55 10° N 04:32:31 43° WNW 04:32:31 43° WNW visible
